Regional Weather Roundup
Issued by NWS

Home | Current Version | Previous Version | Graphics & Text | Print | Product List | Glossary Off
Versions: 1 2 3 4 5 6 7 8 9 10 11 12 13 14 15 16 17 18 19 20 21 22 23 24 25 26 27 28 29 30 31 32 33 34 35 36 37 38 39 40 41 42 43 44 45 46 47 48 49 50

000
ASUS43 KLSX 300057
RWRMO

WEATHER SUMMARY FOR MISSOURI
NATIONAL WEATHER SERVICE SPRINGFIELD MO
800 PM CDT WED MAR 29 2017

NOTE: "FAIR" INDICATES FEW OR NO CLOUDS BELOW 12,000 FEET WITH NO
       SIGNIFICANT WEATHER AND/OR OBSTRUCTIONS TO VISIBILITY.
       CURRENT SKY AND/OR WEATHER CONDITIONS ARE NOT AVAILABLE FOR
       CHILLICOTHE AND FARMINGTON.

MOZ001>031-035>038-043-044-053-054-300200-
...NORTHERN AND WESTERN MISSOURI...

CITY           SKY/WX    TMP DP  RH WIND       PRES   REMARKS
KANSAS CTY INT TSTM      54  53  97 NE12      29.66S
ST JOSEPH      MOCLDY    53  52  96 E7        29.67S
CHILLICOTHE      N/A     55  52  89 E14G22    29.72F

$$
MOZ066>068-077>081-088>096-101>105-300200-
...SOUTHWEST MISSOURI...

CITY           SKY/WX    TMP DP  RH WIND       PRES   REMARKS
SPRINGFIELD    PTCLDY    64  58  80 S7        29.67F
JOPLIN         PTCLDY    65  58  78 W8        29.65R
BRANSON        MOCLDY    68  59  73 S8G20     29.71S THUNDER

$$
MOZ032>034-039>042-045>050-055>058-069>072-300200-
...CENTRAL MISSOURI...

CITY           SKY/WX    TMP DP  RH WIND       PRES   REMARKS
COLUMBIA       NOT AVBL
JEFFERSON CITY CLOUDY    64  60  87 E10       29.70F
ROLLA          TSTM      63  61  93 SW20      29.73R FOG
SEDALIA        MOCLDY    60  57  89 E7        29.67F
WHITEMAN AFB   TSTM      61  61 100 E5        29.64F
WARRENSBURG    LGT RAIN  59  55  88 E16       29.66R

$$
MOZ051-052-059>065-300200-
...EAST CENTRAL MISSOURI...

CITY           SKY/WX    TMP DP  RH WIND       PRES   REMARKS
ST LOUIS INTL  CLOUDY    66  54  65 E15       29.80F

$$
MOZ072>076-082>087-097>100-106>115-300200-
...SOUTH CENTRAL AND SOUTHEAST MISSOURI...

CITY           SKY/WX    TMP DP  RH WIND       PRES   REMARKS
CAPE GIRARDEAU CLOUDY    68  58  70 E7        29.80F
POPLAR BLUFF   CLEAR     70  61  73 SE7       29.76F
WEST PLAINS    CLOUDY    71  60  68 SE15G22   29.73S

$$



USA.gov is the U.S. government's official web portal to all federal, state and local government web resources and services.